Dewpoint
0 -0 -1 -1 -2 -2 -1 -0 -0 -0 -0 -1 -1 -0 -0 -1 -1 0 0 -0 0 -1 -1 -1 -1 -0 -4 -4 0 -3 -1 1 4 5 4 1 2 -2 -3 -7 2 6 6 8 7 8 8 -2 -2 -0 -1 -3 -2 -2
0 -2 -2 -1 -1 1 -1 1 1 1 1 0 0 -0 -0 -2 0 0 1 0 -0 0 2 3 3 3 1 -4 -4 -2 0 1 -1 2 2 -1 5 8 -1 4 -6 5 4 6 3 4 1 -1 -2 -2 -4 -4 -1 -2
-0 -1 -1 -1 -1 -1 -0 0 0 0 -0 -0 -0 -0 -1 -2 0 0 1 1 -0 1 2 0 -0 1 0 1 3 0 -1 -3 -3 -3 -1 2 4 6 7 5 -2 -3 1 5 3 1 0 1 -0 -1 -1 -1 -1 -1
-1 -1 -1 -1 -1 -1 -0 0 -0 0 -0 -0 0 -2 -2 -1 -0 0 1 0 0 1 2 -1 -1 -0 1 -0 2 4 4 -2 -3 -2 2 4 5 -4 5 2 3 -0 2 3 2 -1 -1 -2 0 1 -0 -0 -1 -1
-1 -1 -1 -0 -1 -1 -1 -0 -0 -1 -1 -2 -3 -2 -1 -0 -0 0 0 -0 0 -1 -1 -3 -3 0 3 -2 1 4 4 3 0 3 6 5 -0 -1 1 3 4 -3 1 5 4 -2 1 2 0 -0 1 0 1 0
0 0 0 -0 -0 -1 -2 -1 -1 -2 -2 -2 -0 1 -0 -0 0 -0 -0 0 0 0 -2 2 -0 -3 -1 1 2 3 3 3 1 -1 4 -0 -3 -2 5 4 -3 -6 -2 -1 -0 0 1 0 1 0 -0 0 0 1
0 1 1 0 0 -0 -0 0 0 0 1 1 0 -0 -0 -0 -0 -0 0 -1 -0 -1 -3 -2 -0 -0 -1 -0 2 2 3 2 3 1 2 2 -0 3 6 6 -3 -6 -7 -8 -3 -1 2 0 0 -0 0 1 1 1
-0 0 1 1 1 1 1 1 1 0 -0 -0 -0 -1 -0 -0 -0 -0 -2 -1 -1 -3 -3 -2 0 2 2 2 2 3 3 3 2 2 1 3 2 3 5 -0 -2 -2 -1 1 2 3 3 2 1 1 1 2 2 1
-0 0 0 0 0 0 0 -0 -0 -0 -0 -1 -1 -0 -0 -0 -0 0 -1 -2 -1 -3 -3 -0 1 3 2 3 3 4 3 4 1 4 4 2 5 6 3 -1 -1 3 3 3 3 3 2 2 1 1 1 0 1 1
-1 -1 -0 0 -0 -0 -0 0 0 -0 -0 -0 -1 -2 -1 -0 -0 -2 0 0 -1 -1 1 2 -0 2 0 3 3 4 5 5 5 5 2 4 4 2 2 3 3 3 3 3 3 3 2 2 2 1 1 1 1 0
-3 -1 -1 -1 -1 -0 -1 -2 -3 -4 -2 -1 -0 0 -1 -0 0 1 0 0 0 2 -0 0 1 1 2 3 4 4 4 4 6 6 7 6 5 0 -1 2 3 3 3 2 2 2 2 2 2 1 1 1 1 0
-3 -3 -3 -4 -3 -3 -4 -5 -3 -0 -0 0 0 -0 -0 1 0 1 0 1 1 1 2 2 2 1 2 2 4 4 4 4 6 4 7 3 -1 -2 -2 -1 -1 0 1 1 1 1 1 1 1 1 0 -0 -0 -0
-5 -5 -3 -3 -3 -4 -4 -1 -1 0 0 0 -1 0 0 1 2 1 2 4 3 1 1 3 3 2 2 2 4 4 6 5 1 3 1 -0 -3 -3 -3 -3 -2 -2 -1 -1 -1 -1 -1 -1 -1 -1 -2 -2 -3 -3
-7 -7 -6 -5 -3 -3 -4 -1 -0 -0 1 -0 1 1 2 2 0 -1 -1 0 -1 -1 -1 1 1 2 2 3 1 5 2 3 4 3 0 -3 -3 -3 -4 -4 -4 -5 -4 -4 -4 -4 -4 -4 -5 -5 -5 -5 -4 -5
-7 -4 -2 -2 -0 -0 -1 -0 -0 -1 -3 -3 -4 -2 -2 -3 -4 -4 -3 -2 -2 -2 -1 1 1 1 1 2 1 4 3 0 -1 -2 -4 -5 -4 -5 -5 -5 -5 -6 -6 -6 -6 -6 -6 -6 -6 -6 -6 -5 -5 -5
-4 -1 -1 -0 -1 -2 -2 -2 -3 -5 -3 -5 -7 -6 -7 -4 -5 -6 -5 -4 -4 -3 -1 -0 1 1 -1 -2 -2 -2 -2 -3 -4 -5 -6 -5 -5 -6 -6 -6 -6 -6 -7 -7 -7 -7 -7 -6 -6 -6 -6 -6 -6 -6
-1 -1 -1 -2 -3 -3 -2 -2 -5 -5 -5 -5 -6 -7 -7 -7 -7 -7 -6 -5 -4 -3 -0 -1 -3 -2 -2 -3 -5 -6 -6 -6 -7 -8 -7 -8 -8 -7 -7 -7 -7 -7 -7 -7 -7 -7 -7 -7 -7 -7 -8 -8 -8 -8
-4 -2 -2 -2 -3 -3 -5 -5 -5 -5 -6 -7 -6 -7 -7 -8 -7 -7 -6 -6 -3 -4 -4 -5 -6 -6 -4 -4 -6 -7 -7 -8 -9 -9 -9 -9 -9 -9 -9 -9 -8 -8 -8 -8 -9 -9 -9 -9 -9 -10 -10 -10 -10 -10
-4 -3 -2 -2 -3 -3 -3 -4 -6 -6 -7 -6 -7 -7 -7 -8 -8 -7 -7 -8 -8 -8 -9 -10 -9 -8 -8 -9 -8 -8 -7 -8 -9 -9 -10 -10 -10 -10 -10 -10 -9 -10 -10 -10 -10 -10 -11 -11 -10 -11 -11 -11 -11 -11
-2 -1 -1 -1 -1 -3 -2 -3 -6 -8 -7 -7 -7 -8 -8 -9 -9 -10 -10 -10 -11 -11 -11 -10 -10 -10 -10 -10 -10 -9 -9 -8 -9 -10 -10 -11 -11 -11 -11 -11 -11 -11 -11 -11 -11 -12 -12 -12 -12 -13 -13 -12 -13 -13
-1 -1 -1 -4 -4 -4 -3 -3 -5 -6 -6 -5 -5 -8 -8 -9 -10 -10 -11 -12 -11 -11 -10 -10 -11 -11 -11 -11 -11 -11 -11 -10 -10 -10 -11 -11 -12 -12 -12 -12 -12 -12 -13 -13 -13 -14 -14 -14 -14 -14 -15 -15 -18 -16
-1 -1 -2 -5 -6 -6 -5 -4 -5 -5 -7 -7 -8 -9 -8 -9 -10 -11 -13 -12 -11 -11 -11 -11 -11 -11 -11 -12 -11 -12 -12 -12 -12 -12 -12 -12 -12 -13 -13 -13 -14 -15 -15 -15 -16 -17 -18 -24 -17 -17 -17 -16 -16 -18
-9 -11 -11 -10 -8 -7 -7 -6 -5 -7 -6 -7 -8 -9 -9 -9 -11 -12 -12 -12 -12 -11 -11 -11 -12 -12 -12 -13 -13 -13 -13 -13 -13 -13 -14 -14 -14 -14 -15 -15 -15 -15 -15 -16 -16 -16 -18 -20 -19 -18 -17 -18 -17 -17
-13 -12 -10 -6 -6 -5 -5 -5 -7 -7 -7 -7 -8 -8 -9 -10 -11 -12 -12 -13 -12 -12 -11 -11 -11 -12 -13 -13 -14 -14 -14 -14 -14 -13 -14 -15 -15 -16 -16 -16 -17 -17 -17 -17 -17 -18 -18 -18 -18 -18 -19 -19 -19 -19
-9 -7 -6 -5 -6 -6 -6 -6 -6 -7 -6 -7 -8 -8 -9 -10 -10 -11 -11 -12 -12 -12 -12 -12 -12 -12 -12 -13 -14 -14 -15 -15 -15 -16 -15 -14 -14 -15 -16 -17 -18 -20 -19 -18 -18 -18 -19 -19 -20 -20 -20 -20 -21 -21
-7 -7 -7 -7 -6 -6 -6 -6 -6 -6 -7 -8 -8 -10 -10 -10 -11 -11 -12 -12 -12 -13 -13 -12 -12 -13 -13 -14 -14 -15 -15 -15 -16 -16 -19 -20 -19 -17 -17 -17 -17 -19 -21 -21 -20 -20 -20 -20 -20 -21 -21 -20 -21 -21
-7 -7 -9 -8 -8 -8 -7 -8 -8 -8 -8 -8 -8 -10 -10 -10 -11 -13 -13 -13 -13 -15 -15 -14 -13 -13 -14 -15 -16 -18 -21 -20 -20 -21 -23 -28 -30 -29 -26 -21 -21 -25 -23 -26 -22 -21 -21 -21 -21 -21 -21 -22 -22 -22
-9 -9 -9 -9 -10 -10 -9 -9 -9 -9 -10 -11 -11 -11 -11 -12 -12 -13 -14 -15 -15 -16 -16 -16 -16 -16 -16 -16 -17 -17 -18 -19 -22 -26 -20 -19 -23 -26 -27 -26 -27 -27 -27 -26 -26 -24 -22 -22 -22 -22 -22 -22 -23 -23
-9 -10 -13 -12 -12 -12 -12 -11 -11 -13 -13 -11 -12 -13 -15 -15 -14 -15 -15 -16 -16 -16 -16 -16 -17 -19 -19 -19 -18 -18 -20 -22 -18 -22 -19 -18 -18 -20 -24 -24 -23 -25 -25 -23 -23 -26 -26 -26 -26 -26 -26 -24 -23 -23
-9 -9 -12 -13 -13 -12 -13 -13 -14 -14 -14 -14 -15 -16 -16 -16 -17 -16 -16 -16 -15 -16 -16 -17 -17 -17 -17 -17 -18 -21 -26 -29 -28 -24 -19 -19 -20 -25 -24 -22 -23 -24 -25 -25 -25 -25 -26 -26 -24 -23 -23 -23 -23 -26
-9 -10 -12 -13 -13 -13 -14 -14 -14 -14 -14 -14 -14 -14 -15 -16 -17 -17 -17 -16 -17 -17 -17 -17 -18 -17 -17 -18 -18 -18 -19 -27 -28 -28 -28 -28 -27 -24 -23 -26 -25 -26 -25 -25 -25 -26 -26 -26 -23 -23 -23 -25 -26 -26
-10 -11 -12 -12 -13 -13 -13 -12 -12 -13 -13 -13 -14 -15 -15 -14 -15 -17 -17 -17 -17 -17 -17 -17 -18 -18 -22 -27 -28 -28 -28 -28 -28 -28 -28 -28 -27 -27 -27 -26 -26 -26 -26 -25 -25 -25 -26 -26 -26 -25 -25 -25 -26 -26
-11 -11 -12 -12 -12 -12 -12 -12 -13 -13 -13 -13 -14 -14 -14 -14 -15 -16 -17 -17 -17 -17 -17 -19 -24 -28 -29 -28 -28 -28 -28 -29 -29 -29 -28 -28 -28 -28 -27 -27 -26 -26 -26 -26 -25 -25 -25 -25 -26 -26 -26 -26 -26 -26
Wind_Speed
31 18 13 18 17 16 11 17 34 44 51 53 51 55 51 51 47 59 42 48 32 21 9 17 17 18 28 32 16 19 21 16 12 11 9 9 7 11 12 16 15 9 8 6 9 13 16 6 9 12 17 24 9 11
15 11 11 13 18 10 6 10 8 27 51 54 55 55 54 54 57 51 38 40 35 11 4 4 5 8 18 29 35 26 26 21 16 10 7 7 5 4 11 9 12 14 11 7 9 6 10 21 18 26 23 19 13 14
11 9 11 11 16 14 15 19 25 34 42 53 53 52 47 47 64 49 31 37 31 12 5 8 7 7 19 18 13 15 25 31 28 28 7 6 5 6 7 12 13 16 5 7 13 11 12 11 21 19 13 21 18 14
11 12 12 10 13 17 23 29 32 36 42 44 48 46 50 48 61 32 35 36 28 9 3 6 6 8 9 24 20 14 23 37 26 23 8 5 6 10 7 9 12 12 11 13 17 17 22 20 16 17 19 16 15 14
14 13 14 14 18 23 29 30 32 33 41 40 43 46 43 62 44 29 27 29 26 7 4 8 7 7 8 8 29 16 19 18 17 13 5 7 11 6 4 6 10 15 12 10 8 14 11 15 19 10 17 19 18 17
16 11 13 18 22 24 29 30 30 32 36 41 37 61 61 46 45 37 12 22 25 11 3 1 4 13 18 12 28 20 20 21 19 17 11 16 17 15 6 12 16 26 19 18 14 19 16 19 11 12 16 15 15 18
21 18 24 19 21 24 27 31 29 31 39 51 55 53 53 38 34 19 7 17 20 12 3 2 2 8 18 15 13 21 21 24 15 17 10 13 17 8 8 11 12 22 32 27 23 20 15 19 11 13 12 11 14 15
26 25 28 30 30 31 37 37 38 39 44 48 48 48 42 34 30 11 8 24 23 11 2 2 3 2 11 9 9 24 19 23 18 10 9 9 12 7 7 15 26 27 26 19 12 12 18 13 12 10 9 10 9 13
23 27 27 30 31 35 34 36 43 45 48 48 45 41 31 17 8 6 8 22 13 6 5 4 3 3 1 4 12 11 14 7 8 9 9 9 7 6 4 11 18 5 8 12 10 9 11 10 10 9 8 11 15 16
24 26 29 34 31 36 36 40 41 41 38 37 30 9 6 9 23 24 9 6 4 5 6 4 6 1 3 8 4 7 5 4 5 4 12 6 9 6 18 13 10 11 10 9 10 10 10 11 10 7 8 7 10 16
25 28 30 31 32 33 36 39 41 41 24 7 5 5 15 29 15 6 6 5 8 3 6 5 10 4 6 2 1 3 3 1 5 5 7 7 4 8 22 16 13 11 10 9 9 10 8 7 7 6 6 7 11 15
26 27 28 28 30 32 34 35 27 9 6 9 12 15 12 5 2 3 4 3 3 3 4 4 4 4 0 4 3 4 3 3 4 0 4 3 6 22 22 18 15 11 10 8 7 5 6 7 7 9 12 14 18 20
25 25 26 27 28 29 31 19 15 17 18 15 6 3 0 2 2 1 4 3 3 3 3 2 2 2 4 7 1 1 1 2 1 3 3 5 17 20 19 15 11 9 6 6 7 7 7 9 11 9 14 15 18 21
26 25 24 23 21 21 21 13 6 12 5 5 4 4 4 4 6 5 5 4 6 6 9 3 4 1 3 2 2 2 2 2 3 3 5 8 23 18 15 13 13 15 15 15 15 14 16 18 21 20 21 20 22 25
28 26 23 20 16 17 13 2 3 6 8 8 8 5 5 6 9 9 9 5 5 6 2 2 5 5 4 3 4 1 3 5 7 4 6 20 16 16 17 17 18 20 22 23 23 25 26 28 29 28 26 27 29 29
23 15 12 13 11 12 10 12 8 11 6 6 9 6 15 3 8 13 12 10 9 7 2 5 3 3 5 4 5 7 3 5 4 5 14 17 17 18 20 22 23 24 26 28 29 29 30 32 33 33 30 27 26 24
16 10 10 6 8 12 11 11 10 9 7 5 5 16 11 6 10 14 14 13 12 6 3 3 5 7 3 4 4 5 4 4 9 11 14 18 19 22 25 28 28 28 30 32 32 31 30 28 27 28 30 26 23 22
11 15 13 13 9 15 28 14 8 7 7 10 4 11 13 14 16 15 14 20 8 5 5 4 5 6 5 4 4 4 7 11 12 13 17 20 22 24 27 29 28 29 29 29 30 28 27 26 27 25 23 21 21 18
18 17 13 8 7 8 6 8 8 6 8 5 17 13 8 13 21 19 16 14 19 13 7 7 7 5 5 6 8 9 11 11 12 14 18 21 23 23 25 26 26 28 28 27 27 27 26 25 23 21 19 18 18 16
16 15 10 11 11 6 6 6 6 7 4 5 5 17 23 23 22 27 28 22 16 9 10 6 5 11 12 11 10 9 10 10 11 15 18 19 20 23 24 22 21 21 22 22 23 20 19 20 20 18 16 15 14 13
20 12 13 19 20 11 7 4 6 6 6 6 5 11 14 17 31 29 30 27 25 10 8 15 17 16 16 16 16 15 16 16 18 16 15 17 17 18 19 20 20 20 20 19 19 19 19 18 15 14 13 13 11 11
22 20 18 13 8 6 7 9 6 5 5 5 6 8 8 12 16 19 23 20 14 21 17 16 16 16 19 20 20 19 19 20 19 19 18 16 17 17 18 17 17 19 18 17 16 16 15 14 12 12 11 11 11 10
16 9 5 5 6 6 4 5 5 5 3 3 5 4 5 6 8 8 7 11 11 15 14 16 17 17 19 18 19 19 17 16 17 17 16 16 16 15 16 16 16 15 15 14 13 12 11 11 11 11 10 10 9 9
6 5 5 5 6 5 4 4 4 4 5 4 3 4 4 6 6 7 5 6 8 9 10 10 10 12 13 14 15 15 14 13 14 14 13 12 13 13 13 13 12 12 11 9 9 9 9 9 10 9 9 9 9 9
4 8 5 7 5 4 4 3 3 3 4 4 3 4 3 3 3 3 3 4 6 8 8 9 10 10 12 12 12 12 12 10 10 12 12 10 9 8 8 8 10 11 9 8 9 9 8 8 9 9 9 10 11 11
7 10 6 4 3 3 3 3 3 4 3 3 4 3 2 3 3 4 3 6 6 6 7 7 7 8 9 8 8 8 8 8 7 10 10 10 9 8 7 6 6 8 10 9 8 8 9 9 10 10 10 10 11 10
5 6 7 6 6 8 7 9 8 5 4 3 3 2 2 3 3 3 7 5 5 6 6 8 8 8 8 8 8 8 8 7 7 6 6 7 7 7 6 6 6 7 8 8 8 8 8 9 9 9 9 8 9 9
6 7 5 6 9 10 4 4 4 4 3 4 2 4 3 3 3 4 6 7 8 8 8 8 9 8 8 7 6 5 4 4 5 8 7 8 8 8 7 7 6 6 7 7 7 7 7 7 7 7 8 8 9 9
7 5 7 8 8 9 10 6 4 5 5 3 2 3 3 5 6 10 10 9 8 7 6 6 6 6 6 5 4 3 4 4 2 3 3 2 3 6 8 7 7 8 7 7 7 7 7 7 7 7 8 8 8 8
5 4 6 8 6 6 8 8 9 9 10 9 9 14 14 10 7 10 7 6 5 5 5 5 6 4 3 2 1 4 5 5 4 2 1 1 3 6 6 7 7 8 7 6 6 7 8 8 8 8 8 9 8 11
5 6 8 8 7 10 11 12 14 12 11 13 13 13 11 7 5 6 6 6 5 4 4 4 4 3 1 0 0 2 3 6 5 5 4 5 5 5 6 8 8 8 7 7 8 7 8 8 7 8 8 11 12 13
7 7 7 5 6 5 4 4 4 5 5 6 5 5 5 5 4 4 7 5 4 4 6 4 3 2 3 3 4 4 5 6 6 6 6 6 6 7 9 10 10 9 9 9 9 9 10 10 11 11 12 12 14 14
14 15 13 8 5 4 3 4 3 4 4 3 3 3 3 2 3 4 8 9 9 6 5 5 4 4 3 4 5 6 6 6 7 7 7 7 8 9 9 10 10 11 11 11 11 11 12 12 13 14 15 16 16 17
Wind_Direction
318 316 298 304 292 283 275 230 228 222 215 207 202 196 198 198 201 182 185 185 181 198 250 221 229 197 210 204 203 195 201 201 186 197 203 211 236 226 222 226 193 195 209 191 232 234 233 133 153 204 223 239 232 229
335 336 339 332 322 255 223 168 174 187 190 189 191 188 189 190 187 178 176 184 189 189 166 176 169 196 202 209 203 202 202 191 188 204 202 215 243 220 211 236 221 203 242 235 215 236 217 187 214 222 241 269 232 244
354 5 18 28 67 90 126 143 146 144 157 174 178 177 182 182 178 175 166 170 178 168 182 190 173 203 191 209 204 221 203 210 210 207 194 201 208 187 208 224 234 225 189 228 255 249 234 215 240 256 266 248 253 236
33 48 60 68 85 104 111 122 129 140 148 156 166 169 173 178 171 161 169 168 167 139 186 159 175 199 220 211 217 220 220 221 209 211 209 201 214 232 223 232 222 224 182 228 247 246 271 268 268 257 258 258 252 233
59 72 73 88 102 113 119 127 136 141 146 154 157 164 165 168 163 151 157 167 180 168 192 213 210 195 201 230 223 247 236 233 201 200 208 218 222 256 215 263 247 230 219 231 246 252 262 250 252 251 254 242 243 241
62 94 95 102 107 119 122 130 139 146 146 150 154 149 153 143 158 153 108 161 181 185 130 134 251 202 209 201 209 228 226 222 228 198 216 231 223 233 237 244 244 243 233 247 266 271 268 274 285 269 252 240 235 238
80 85 102 113 115 125 128 132 135 144 147 148 148 153 153 149 147 148 142 177 163 168 210 317 262 189 204 204 219 225 224 218 224 232 217 222 203 209 247 250 251 245 248 257 251 256 269 256 248 252 242 239 217 220
76 94 114 117 120 123 130 129 135 141 144 146 142 138 139 146 137 102 105 163 160 164 145 251 255 223 181 193 204 203 208 206 224 224 219 225 237 230 244 242 249 260 271 274 287 247 260 278 266 248 228 199 202 192
95 95 104 110 115 117 126 125 132 135 138 142 147 150 146 139 132 147 158 160 160 187 188 201 238 176 328 238 187 175 199 197 226 219 221 215 213 217 310 260 259 338 312 302 300 275 269 264 258 242 227 199 178 179
100 106 111 117 117 123 125 126 132 138 137 134 118 106 99 133 128 123 100 131 162 232 237 227 213 154 21 227 154 180 194 158 187 217 190 227 235 71 13 347 338 334 324 316 304 295 276 255 242 229 228 215 195 181
97 102 107 111 120 126 125 123 124 122 104 98 77 73 133 135 144 151 133 167 192 210 220 228 192 202 197 270 228 78 136 224 172 172 199 184 149 346 343 346 350 346 333 322 308 300 298 276 247 201 171 166 161 159
103 106 111 115 118 121 123 122 115 82 109 86 102 117 136 182 165 123 165 135 197 203 147 172 154 181 344 265 257 147 144 174 165 259 159 71 12 347 344 343 345 352 7 14 19 25 51 76 101 125 134 140 149 156
112 107 112 116 122 125 130 119 119 90 112 115 107 86 173 40 151 210 186 171 149 1 32 137 118 145 215 242 29 28 129 61 75 61 77 48 354 351 354 1 6 16 28 47 56 81 101 118 129 146 140 138 141 139
121 122 119 115 124 137 144 148 60 75 61 64 38 78 359 63 33 32 344 345 352 347 0 357 88 267 3 57 331 96 50 3 64 62 61 5 352 0 14 30 51 56 64 71 75 83 93 100 103 110 115 123 126 126
130 122 111 109 91 74 73 27 328 36 54 44 17 35 46 354 34 352 338 314 359 326 326 108 66 50 20 51 11 53 70 69 32 44 9 339 5 29 41 54 64 72 78 82 87 92 97 102 103 104 109 114 117 121
138 126 75 54 46 43 32 28 93 68 58 55 38 355 351 358 17 5 349 336 344 334 82 52 77 87 58 32 43 20 61 47 46 15 358 10 34 50 62 69 74 80 82 85 89 93 97 98 99 101 103 102 104 108
146 134 122 95 58 41 20 35 51 52 44 41 60 29 12 19 352 343 336 329 333 334 53 48 49 43 58 55 52 20 41 38 30 29 29 41 49 60 71 75 76 79 83 87 90 88 90 94 98 95 90 91 95 97
148 127 118 116 77 44 51 49 73 63 69 20 17 20 26 17 357 1 4 12 45 65 43 63 75 37 38 49 57 64 60 83 61 56 51 58 66 78 84 87 87 90 91 90 89 86 83 80 77 75 78 80 80 78
142 144 145 144 89 72 59 46 53 84 62 73 49 45 34 31 28 29 34 46 66 77 89 67 57 37 53 44 46 63 50 85 82 69 63 70 73 72 74 78 82 84 82 78 79 80 80 82 79 76 75 77 79 76
157 164 174 170 144 75 73 54 63 76 72 74 80 67 58 49 45 46 46 55 70 64 54 52 54 53 56 53 51 58 49 96 91 80 68 62 64 69 70 70 70 70 71 73 77 73 67 65 61 60 62 65 61 54
160 139 120 106 72 71 81 71 70 93 111 71 54 63 48 43 39 40 43 52 53 49 73 75 76 69 69 70 70 76 79 86 80 82 83 75 66 67 65 65 70 70 67 63 62 60 62 55 51 49 47 46 42 48
131 123 99 65 65 67 62 36 80 71 73 82 54 48 42 38 35 40 46 51 60 54 63 74 76 79 74 69 68 71 77 80 80 79 77 78 72 66 64 62 63 64 63 60 59 58 54 51 48 41 42 38 33 23
114 111 80 70 85 68 67 32 63 32 59 54 41 43 39 46 33 38 70 50 61 53 68 76 79 80 79 76 76 74 73 77 76 72 71 72 71 67 65 62 60 59 56 49 47 44 38 40 28 35 31 29 31 23
111 71 54 58 65 91 82 50 54 66 52 46 51 59 38 39 43 62 63 54 46 54 65 69 78 81 77 75 73 69 64 70 77 75 70 70 69 63 62 60 55 52 48 41 36 33 34 29 35 27 29 29 27 25
85 21 29 67 57 91 84 76 41 68 73 57 73 66 62 47 66 75 89 102 78 70 71 78 83 86 86 81 74 67 70 76 81 80 71 71 70 66 54 46 45 45 44 44 36 30 29 30 23 24 20 15 13 15
74 28 36 47 53 66 62 84 66 69 83 73 66 74 56 67 74 85 89 122 100 84 74 71 81 92 85 86 90 73 61 65 70 71 59 55 54 50 42 44 35 18 18 25 25 26 19 18 13 15 13 8 1 9
73 63 54 48 83 95 98 75 74 68 67 68 71 68 77 74 82 84 121 93 113 93 88 82 85 94 96 88 79 79 78 79 72 61 38 23 22 27 35 37 25 6 8 13 16 18 11 7 5 6 2 1 356 355
62 48 73 55 72 51 83 66 55 54 62 28 69 45 62 48 93 101 124 123 115 110 104 104 106 106 107 98 87 72 56 38 24 18 22 15 15 22 18 15 13 1 359 3 4 3 360 353 349 348 342 345 341 345
66 77 88 52 67 58 39 39 63 58 16 5 84 77 89 95 99 125 126 124 115 107 103 105 108 120 124 119 102 72 44 27 8 351 22 6 348 336 354 1 358 352 353 357 349 353 352 350 345 341 339 339 336 335
63 38 92 53 56 53 40 50 89 77 64 73 96 107 103 110 111 121 126 116 120 131 127 133 135 128 127 105 28 345 345 356 2 27 2 331 306 318 335 339 343 341 343 341 340 338 341 341 341 339 333 335 329 331
72 66 72 67 82 90 94 89 86 76 68 73 85 106 115 127 128 136 140 146 147 134 127 139 149 145 142 120 317 311 323 340 346 343 337 327 321 325 321 326 329 332 331 329 327 326 326 329 325 320 319 321 324 327
50 62 108 102 113 143 74 102 86 85 75 71 80 97 110 124 132 174 185 168 155 150 178 168 164 230 266 286 297 302 303 314 324 329 330 333 329 321 324 326 326 326 323 320 319 318 319 319 318 313 313 314 315 317
89 82 90 97 106 113 101 107 82 92 79 79 91 93 91 89 117 206 187 189 171 187 192 206 248 268 276 292 301 308 308 314 319 320 320 325 331 331 328 329 328 326 323 320 315 312 310 309 309 308 309 309 311 313
Height
1233 1225 1219 1214 1208 1202 1197 1197 1200 1208 1220 1238 1255 1272 1288 1302 1314 1323 1336 1350 1358 1367 1369 1371 1372 1375 1377 1382 1386 1393 1397 1398 1407 1418 1415 1409 1406 1399 1402 1401 1410 1424 1424 1424 1419 1417 1420 1398 1402 1407 1401 1398 1400 1402
1230 1224 1218 1211 1202 1195 1196 1194 1191 1189 1205 1230 1251 1268 1285 1301 1313 1324 1337 1349 1360 1367 1371 1370 1372 1375 1377 1380 1387 1388 1392 1396 1395 1401 1401 1402 1402 1401 1400 1407 1396 1412 1411 1408 1403 1397 1394 1394 1394 1394 1394 1394 1396 1399
1229 1225 1219 1214 1207 1202 1201 1201 1203 1208 1219 1236 1253 1270 1285 1300 1313 1324 1335 1347 1360 1368 1373 1371 1372 1374 1377 1381 1384 1385 1387 1389 1392 1395 1395 1399 1402 1399 1404 1401 1397 1393 1400 1403 1400 1390 1390 1393 1394 1393 1394 1394 1394 1395
1232 1227 1224 1220 1217 1215 1214 1216 1219 1226 1236 1249 1263 1277 1291 1304 1316 1329 1338 1347 1358 1364 1369 1370 1372 1375 1377 1381 1383 1387 1388 1389 1387 1392 1393 1394 1396 1389 1393 1394 1393 1389 1393 1394 1389 1386 1388 1388 1390 1391 1392 1395 1394 1394
1237 1234 1231 1228 1227 1227 1228 1231 1235 1241 1250 1261 1272 1286 1297 1307 1322 1333 1341 1350 1358 1365 1364 1367 1370 1373 1375 1375 1382 1384 1384 1385 1383 1386 1387 1392 1390 1389 1387 1390 1385 1382 1384 1388 1387 1383 1382 1383 1385 1387 1389 1389 1391 1393
1242 1239 1238 1236 1236 1237 1240 1244 1247 1254 1261 1271 1280 1289 1301 1315 1321 1331 1346 1355 1361 1365 1366 1368 1368 1368 1373 1376 1377 1380 1382 1385 1381 1382 1388 1388 1387 1389 1386 1383 1382 1382 1379 1381 1381 1384 1383 1382 1382 1381 1384 1384 1386 1389
1250 1247 1246 1245 1246 1248 1250 1254 1259 1263 1270 1279 1289 1300 1312 1321 1330 1339 1348 1352 1359 1365 1367 1365 1362 1364 1369 1372 1373 1378 1380 1382 1385 1382 1381 1383 1382 1385 1381 1378 1376 1375 1377 1377 1378 1381 1381 1379 1378 1377 1378 1380 1378 1384
1261 1258 1256 1256 1256 1258 1260 1264 1270 1275 1283 1292 1302 1312 1320 1327 1336 1346 1348 1352 1359 1366 1368 1367 1362 1362 1363 1366 1370 1374 1376 1381 1381 1381 1379 1381 1381 1382 1376 1373 1375 1375 1374 1374 1375 1376 1378 1377 1375 1373 1372 1374 1377 1379
1273 1271 1269 1269 1271 1272 1274 1279 1283 1290 1297 1304 1311 1320 1329 1337 1344 1348 1352 1357 1362 1367 1365 1365 1361 1358 1362 1363 1364 1369 1372 1375 1375 1374 1376 1377 1376 1376 1371 1371 1372 1373 1376 1375 1374 1375 1376 1375 1375 1373 1374 1370 1373 1377
1283 1282 1282 1283 1284 1287 1290 1293 1298 1302 1308 1315 1324 1331 1338 1343 1346 1350 1359 1362 1365 1364 1362 1356 1356 1360 1365 1359 1361 1369 1361 1365 1370 1369 1372 1369 1366 1373 1379 1380 1378 1376 1376 1375 1373 1373 1373 1372 1373 1371 1373 1375 1376 1378
1292 1293 1294 1295 1296 1299 1302 1306 1310 1315 1319 1324 1327 1333 1338 1344 1347 1349 1356 1360 1361 1359 1355 1353 1354 1358 1361 1355 1351 1352 1356 1359 1359 1360 1357 1360 1365 1389 1386 1382 1379 1377 1376 1375 1375 1374 1372 1370 1370 1371 1373 1375 1377 1378
1303 1304 1305 1307 1309 1311 1314 1318 1322 1324 1326 1327 1331 1337 1343 1345 1345 1348 1350 1352 1351 1346 1349 1350 1352 1354 1353 1354 1346 1350 1351 1356 1352 1358 1356 1376 1394 1392 1387 1383 1379 1377 1376 1375 1374 1374 1371 1369 1370 1372 1375 1376 1376 1377
1312 1313 1315 1317 1319 1321 1325 1327 1329 1329 1331 1333 1337 1341 1341 1346 1346 1345 1342 1343 1346 1350 1350 1350 1352 1355 1356 1354 1350 1349 1348 1352 1360 1363 1379 1394 1399 1394 1388 1384 1381 1379 1376 1375 1374 1373 1371 1371 1372 1374 1376 1378 1380 1383
1320 1321 1323 1326 1329 1331 1331 1332 1332 1333 1335 1337 1340 1344 1347 1346 1353 1356 1356 1355 1354 1352 1351 1350 1352 1351 1352 1352 1355 1351 1363 1361 1362 1368 1389 1402 1401 1396 1392 1389 1385 1383 1381 1380 1379 1379 1378 1378 1379 1381 1381 1383 1386 1388
1327 1330 1332 1334 1336 1337 1337 1336 1336 1337 1338 1346 1349 1355 1359 1365 1364 1363 1361 1360 1358 1356 1355 1353 1353 1356 1359 1359 1363 1359 1363 1375 1388 1397 1409 1409 1404 1400 1397 1395 1392 1390 1389 1388 1389 1389 1389 1387 1387 1389 1391 1393 1395 1399
1334 1335 1337 1338 1340 1341 1340 1341 1338 1340 1352 1361 1369 1369 1371 1366 1368 1367 1363 1360 1360 1357 1355 1355 1357 1361 1368 1372 1376 1383 1382 1397 1410 1416 1417 1413 1410 1407 1404 1401 1399 1399 1398 1397 1398 1399 1398 1397 1398 1400 1403 1406 1408 1410
1340 1341 1344 1344 1344 1343 1342 1342 1346 1356 1367 1373 1379 1381 1378 1375 1374 1371 1366 1361 1357 1356 1356 1361 1366 1375 1379 1385 1400 1409 1415 1421 1423 1423 1422 1418 1416 1413 1411 1407 1407 1407 1406 1406 1406 1407 1409 1411 1413 1411 1411 1416 1417 1419
1343 1344 1346 1347 1347 1346 1346 1350 1360 1372 1381 1385 1382 1383 1382 1380 1376 1371 1367 1362 1359 1362 1366 1375 1384 1392 1396 1401 1413 1423 1424 1426 1427 1427 1425 1424 1422 1419 1416 1415 1416 1415 1414 1414 1415 1416 1419 1420 1420 1421 1423 1423 1425 1427
1345 1348 1349 1350 1350 1350 1357 1364 1369 1380 1389 1389 1390 1387 1386 1385 1382 1377 1373 1371 1369 1371 1375 1387 1399 1410 1419 1425 1427 1428 1428 1429 1431 1431 1430 1428 1427 1426 1425 1424 1423 1422 1422 1422 1423 1424 1426 1427 1428 1429 1429 1430 1432 1434
1347 1350 1352 1353 1354 1357 1366 1374 1377 1383 1389 1394 1393 1393 1392 1391 1390 1386 1380 1378 1377 1379 1393 1411 1425 1432 1432 1433 1432 1432 1433 1433 1434 1435 1435 1435 1434 1433 1431 1431 1431 1431 1430 1430 1431 1433 1433 1432 1433 1433 1434 1435 1435 1435
1351 1353 1355 1356 1357 1363 1372 1378 1383 1387 1390 1392 1394 1394 1396 1396 1393 1391 1390 1393 1390 1406 1421 1433 1436 1437 1437 1437 1437 1436 1436 1436 1437 1439 1440 1440 1440 1439 1438 1437 1436 1435 1436 1437 1437 1437 1437 1438 1439 1439 1438 1437 1437 1437
1355 1357 1359 1361 1366 1373 1380 1384 1386 1389 1392 1395 1396 1397 1400 1402 1404 1405 1411 1408 1424 1435 1437 1440 1441 1441 1441 1441 1442 1442 1443 1442 1443 1444 1444 1445 1445 1445 1444 1444 1443 1442 1443 1444 1443 1443 1443 1442 1443 1442 1441 1442 1441 1438
1359 1361 1364 1367 1372 1380 1392 1390 1391 1393 1395 1398 1400 1404 1408 1412 1417 1418 1426 1437 1445 1447 1446 1446 1446 1447 1446 1448 1448 1448 1449 1450 1450 1450 1450 1450 1451 1450 1450 1449 1448 1449 1448 1448 1448 1448 1447 1446 1445 1444 1444 1443 1443 1442
1361 1363 1367 1372 1378 1388 1392 1395 1397 1399 1402 1403 1408 1414 1420 1422 1425 1430 1440 1449 1453 1452 1452 1452 1452 1452 1453 1453 1453 1454 1455 1455 1455 1456 1457 1456 1456 1455 1454 1453 1452 1452 1453 1453 1452 1451 1450 1449 1448 1447 1445 1444 1443 1442
1365 1376 1377 1381 1385 1388 1394 1400 1402 1403 1408 1411 1415 1420 1426 1427 1430 1438 1446 1455 1457 1457 1457 1457 1457 1458 1459 1460 1460 1460 1460 1461 1461 1460 1460 1460 1460 1460 1459 1457 1455 1454 1454 1455 1454 1452 1450 1449 1448 1447 1445 1443 1440 1439
1375 1385 1386 1388 1391 1392 1397 1401 1406 1410 1412 1417 1424 1429 1430 1431 1435 1443 1451 1457 1458 1459 1459 1460 1461 1461 1462 1463 1463 1463 1463 1464 1463 1461 1460 1459 1459 1460 1460 1459 1459 1456 1454 1453 1452 1451 1450 1448 1447 1445 1444 1443 1440 1439
1383 1390 1394 1396 1397 1398 1404 1410 1412 1415 1418 1422 1427 1430 1431 1435 1443 1454 1458 1459 1460 1460 1460 1462 1463 1464 1464 1464 1464 1463 1463 1463 1462 1462 1461 1460 1459 1458 1458 1458 1456 1455 1454 1452 1451 1450 1449 1448 1447 1446 1444 1443 1442 1440
1393 1396 1398 1402 1403 1406 1410 1415 1419 1424 1428 1432 1432 1437 1439 1443 1450 1456 1458 1460 1461 1461 1461 1461 1463 1465 1465 1466 1466 1466 1465 1465 1464 1463 1462 1461 1460 1458 1457 1456 1455 1454 1453 1452 1450 1449 1449 1448 1447 1446 1444 1442 1441 1439
1399 1403 1405 1409 1410 1417 1424 1426 1430 1436 1439 1436 1437 1443 1450 1455 1457 1458 1460 1461 1462 1463 1463 1464 1464 1465 1465 1466 1466 1466 1466 1465 1466 1465 1464 1464 1464 1461 1457 1456 1455 1454 1452 1451 1450 1449 1448 1446 1445 1444 1442 1441 1439 1438
1406 1406 1409 1416 1421 1429 1437 1437 1439 1441 1441 1441 1443 1450 1453 1457 1458 1460 1462 1463 1464 1465 1465 1466 1466 1468 1468 1469 1467 1466 1465 1465 1464 1464 1464 1464 1462 1459 1457 1456 1455 1453 1452 1451 1449 1448 1446 1445 1444 1442 1441 1439 1438 1436
1408 1409 1415 1424 1434 1442 1442 1442 1443 1444 1445 1447 1449 1451 1455 1458 1460 1461 1462 1463 1464 1464 1465 1466 1466 1467 1467 1467 1468 1467 1466 1464 1463 1462 1461 1460 1459 1458 1457 1455 1453 1452 1450 1449 1447 1446 1445 1444 1443 1442 1440 1438 1436 1433
1413 1415 1420 1430 1440 1444 1443 1445 1446 1447 1450 1451 1454 1456 1458 1460 1462 1463 1462 1463 1465 1466 1466 1467 1467 1467 1466 1466 1466 1465 1464 1463 1462 1461 1460 1459 1458 1456 1454 1453 1451 1449 1448 1447 1445 1444 1443 1442 1440 1439 1437 1435 1432 1430
1421 1423 1426 1432 1439 1442 1444 1445 1446 1450 1452 1454 1457 1458 1458 1459 1461 1462 1461 1462 1465 1465 1465 1465 1465 1465 1465 1465 1465 1464 1463 1462 1461 1459 1458 1457 1456 1454 1452 1451 1449 1447 1446 1444 1443 1442 1440 1438 1437 1435 1433 1431 1428 1426